User: anonymous   Login
Location: Writing-on-Stone Provincial Park
(49.0825°N, 111.6163°W)
Time: 15:15:12
(UTC-06:00)
Language:

BREEZE-M DEB (TANK) - Orbit

View from above orbital plane
View from above orbital plane
View from above satellite
View from above satellite

Ground track
Ground track

The orbit data is extracted from the following two-line orbital elements,

1 29649U 06056B   16204.84641127 +.00001293 +00000-0 +20110-3 0  9995
2 29649 049.4583 114.3857 5392096 316.0247 011.9507 04.98658473171344
Epoch (UTC): 22 July 2016 20:18:49
Eccentricity: 0.5392096
inclination: 49.4583°
perigee height: 290 km
apogee height: 15897 km
right ascension of ascending node: 114.3857°
argument of perigee: 316.0247°
revolutions per day: 4.98658473
mean anomaly at epoch: 11.9507°
orbit number at epoch: 17134

The dashed part of the orbit path shows where the satellite is in the earth's shadow,  

DLR